[Date Prev][Date Next][Thread Prev][Thread Next] - [Date Index][Thread Index][Author Index]

2 Line ISS Keps 10-23



ISS
1 25544U 98067A   03295.53552256  .00025983  00000-0  28893-3 0  6832
2 25544  51.6292  98.3649 0006508  66.6831   3.8088 15.62678587280906


----
Via the sarex mailing list at AMSAT.ORG courtesy of AMSAT-NA.
To unsubscribe, send "unsubscribe sarex" to Majordomo@amsat.org



AMSAT Top AMSAT Home